Waarnemingen

Advertentie
Mijn weer
Cap Ferret, Frankrijk (7500): temperatuur & dauwpunt: 19.11.2017 02:00:00 - 25.11.2017 02:00:00 (CET)Cap Ferret, Frankrijk (7500): windsnelheid & windstoten: 19.11.2017 02:00:00 - 25.11.2017 02:00:00 (CET)Cap Ferret, Frankrijk (7500): windrichting: 19.11.2017 02:00:00 - 25.11.2017 02:00:00 (CET)Cap Ferret, Frankrijk (7500): luchtdruk: 19.11.2017 02:00:00 - 25.11.2017 02:00:00 (CET)Cap Ferret, Frankrijk (7500): zicht: 19.11.2017 02:00:00 - 25.11.2017 02:00:00 (CET)Cap Ferret, Frankrijk (7500): Zonneschijnduur: 19.11.2017 02:00:00 - 25.11.2017 02:00:00 (CET)Cap Ferret, Frankrijk (7500): neerslag: 19.11.2017 02:00:00 - 25.11.2017 02:00:00 (CET)
Datum & Tijd tt [°C] td [°C] ff [km/u] ff [kn] fx [km/u] fx [kn] dd ppp [hPa] vv [km] sd [min] rr [mm]
25.11.2017 02:00:00 11,8 10,7 18 10 44 24 N 1016,6 - 0 2,0
25.11.2017 01:00:00 12,4 11,3 14 7 34 18 NNW 1016,2 7 0 2,2
25.11.2017 00:00:00 12,8 11,7 24 13 35 19 W 1016,2 - 0 1,5
24.11.2017 23:00:00 12,8 11,7 20 11 26 14 W 1016,0 - 0 1,2
24.11.2017 22:00:00 13,2 11,9 17 9 36 19 WNW 1015,8 7 0 3,2
24.11.2017 21:00:00 13,3 12,2 14 8 18 10 W 1016,0 - 0 0,6
24.11.2017 20:00:00 12,9 11,5 11 6 14 8 W 1015,9 - 0 0,0
24.11.2017 19:00:00 13,7 12,4 6 3 21 12 WNW 1016,1 7 0 0,0
24.11.2017 18:00:00 13,3 12,0 9 5 21 12 ZW 1016,2 - 0 0,2
24.11.2017 17:00:00 13,5 12,2 10 5 21 11 WZW 1016,3 - 0 1,8
24.11.2017 16:00:00 14,0 12,6 11 6 21 11 WNW 1016,1 3,0 0 1,0
24.11.2017 15:00:00 15,0 13,5 5 3 9 5 ZW 1016,0 - 0 0,0
24.11.2017 14:00:00 14,6 13,1 5 3 9 5 Z 1016,2 - 0 0,2
24.11.2017 13:00:00 14,8 13,3 2 1 8 4 OZO 1016,4 8 0 0,0
24.11.2017 12:00:00 14,4 12,9 6 3 24 13 WNW 1016,8 - 0 0,2
24.11.2017 11:00:00 14,4 12,9 11 6 16 8 W 1016,8 - 0 0,2
24.11.2017 10:00:00 14,2 12,6 9 5 16 9 W 1016,3 8 0 1,2
24.11.2017 09:00:00 14,3 12,7 6 4 11 6 W 1015,8 - 0 0,2
24.11.2017 08:00:00 14,6 12,6 4 2 19 10 O 1015,1 - 0 0,0
24.11.2017 07:00:00 15,1 13,3 9 5 11 6 ZW 1014,6 10 0 0,0
24.11.2017 06:00:00 15,0 11,9 9 5 21 12 W 1013,8 - 0 0,0
24.11.2017 05:00:00 15,7 11,7 19 10 28 15 ZW 1013,5 - 0 0,0
24.11.2017 04:00:00 14,5 8,2 11 6 29 15 ZZW 1013,3 10 0 0,0
24.11.2017 03:00:00 14,6 8,1 19 10 29 16 Z 1013,4 - 0 0,0
24.11.2017 02:00:00 14,1 7,8 19 11 34 18 Z 1013,3 - 0 0,0
24.11.2017 01:00:00 13,6 7,8 16 9 30 16 ZZO 1013,1 10 0 0,0
24.11.2017 00:00:00 13,7 7,5 21 11 36 20 ZZO 1013,3 - 0 0,0
23.11.2017 23:00:00 14,0 8,0 21 11 34 18 ZZO 1013,2 - 0 0,0
23.11.2017 22:00:00 13,2 8,9 14 8 26 14 ZO 1013,5 10 0 0,0
23.11.2017 21:00:00 11,5 9,6 9 5 18 10 OZO 1013,7 - 0 0,0
23.11.2017 20:00:00 11,0 8,9 11 6 15 8 ZO 1014,0 - 0 0,0
23.11.2017 19:00:00 12,4 10,3 10 5 17 9 ZZO 1014,1 7 0 0,0
23.11.2017 18:00:00 13,9 11,2 9 5 21 12 ZZO 1013,8 - 0 0,0
23.11.2017 17:00:00 15,6 12,7 11 6 20 11 Z 1013,6 - 40 0,0
23.11.2017 16:00:00 16,8 13,1 13 7 22 12 Z 1013,4 5 60 0,0
23.11.2017 15:00:00 17,0 12,9 10 5 21 11 Z 1013,2 - 60 0,0
23.11.2017 14:00:00 18,1 13,0 9 5 19 10 ZZW 1013,0 - 60 0,0
23.11.2017 13:00:00 17,5 13,2 10 6 18 10 Z 1012,7 5 60 0,0
23.11.2017 12:00:00 17,0 13,1 14 7 23 12 ZZW 1012,6 - 41 0,0
23.11.2017 11:00:00 17,4 12,9 14 8 27 15 ZZW 1012,3 - 55 0,0
23.11.2017 10:00:00 16,0 12,4 18 10 26 14 ZZW 1011,6 10 16 0,0
23.11.2017 09:00:00 15,2 11,8 15 8 29 15 Z 1010,6 - 6 0,0
23.11.2017 08:00:00 15,4 11,0 19 10 35 19 Z 1009,8 - 0 0,0
23.11.2017 07:00:00 16,0 9,4 25 13 39 21 ZZW 1009,1 10 0 0,0
23.11.2017 06:00:00 16,2 8,9 24 13 36 19 ZW 1008,8 - 0 0,0
23.11.2017 05:00:00 16,5 10,1 23 12 40 21 WZW 1008,4 - 0 0,0
23.11.2017 04:00:00 16,0 9,9 29 15 55 30 Z 1007,8 10 0 0,0
23.11.2017 03:00:00 16,5 8,7 36 20 58 31 Z 1007,2 - 0 0,0
23.11.2017 02:00:00 16,7 7,3 39 21 59 32 Z 1006,5 - 0 0,0
23.11.2017 01:00:00 16,4 5,0 34 18 57 31 Z 1006,5 10 0 0,0
23.11.2017 00:00:00 17,3 2,8 34 18 64 35 Z 1006,2 - 0 0,0
22.11.2017 23:00:00 17,5 3,7 32 17 66 36 Z 1006,2 - 0 0,0
22.11.2017 22:00:00 15,1 5,6 26 14 46 25 ZZO 1006,7 10 0 0,0
22.11.2017 21:00:00 14,7 5,7 25 13 51 27 ZO 1006,6 - 0 0,0
22.11.2017 20:00:00 14,6 6,2 22 12 44 24 ZO 1006,9 - 0 0,0
22.11.2017 19:00:00 15,9 6,6 22 12 38 20 ZO 1007,5 10 0 0,0
22.11.2017 18:00:00 15,4 5,6 16 8 28 15 ZO 1007,7 - 5 0,0
22.11.2017 17:00:00 17,3 5,2 21 12 39 21 Z 1007,7 - 60 0,0
22.11.2017 16:00:00 17,7 7,4 25 14 50 27 Z 1008,0 15 60 0,0
22.11.2017 15:00:00 17,9 6,7 28 15 43 23 Z 1008,3 - 60 0,0
22.11.2017 14:00:00 19,0 5,1 23 13 40 22 Z 1009,1 - 60 0,0
22.11.2017 13:00:00 16,4 6,2 15 8 29 16 ZZO 1009,8 15 60 0,0
22.11.2017 12:00:00 13,9 5,5 15 8 32 17 ZZO 1010,7 - 60 0,0
22.11.2017 11:00:00 13,4 5,0 14 8 29 16 ZO 1011,4 - 60 0,0
22.11.2017 10:00:00 11,0 5,1 13 7 27 15 ZO 1011,6 15 60 0,0
22.11.2017 09:00:00 8,7 4,1 15 8 29 16 ZO 1011,8 - 38 0,0
22.11.2017 08:00:00 8,2 4,0 16 9 31 17 ZZO 1012,0 - 0 0,0
22.11.2017 07:00:00 8,7 4,5 16 9 31 17 ZO 1012,4 10 0 0,0
22.11.2017 06:00:00 8,1 5,0 19 10 36 19 ZO 1013,0 - 0 0,0
22.11.2017 05:00:00 7,2 5,2 12 7 27 15 O 1013,7 - 0 0,0
22.11.2017 04:00:00 7,2 5,5 11 6 30 16 O 1014,3 10 0 0,0
22.11.2017 03:00:00 6,8 5,6 13 7 27 15 O 1015,1 - 0 0,0
22.11.2017 02:00:00 7,0 5,9 12 7 25 13 O 1015,6 - 0 0,2
22.11.2017 01:00:00 7,4 6,3 13 7 21 11 NO 1016,4 10 0 0,0
22.11.2017 00:00:00 8,4 7,5 14 7 23 12 O 1016,5 - 0 0,0
21.11.2017 23:00:00 9,2 8,3 13 7 19 10 O 1017,2 - 0 0,0
21.11.2017 22:00:00 9,2 8,4 10 5 17 9 O 1017,5 7 0 0,0
21.11.2017 21:00:00 7,9 6,7 8 4 13 7 ONO 1017,8 - 0 0,0
21.11.2017 20:00:00 7,8 6,3 9 5 13 7 NO 1018,0 - 0 0,0
21.11.2017 19:00:00 8,8 6,6 8 4 12 6 OZO 1018,1 7 0 0,0
21.11.2017 18:00:00 10,8 8,6 10 5 12 7 ZZO 1018,5 - 8 0,0
21.11.2017 17:00:00 13,1 11,0 4 2 7 4 ZZO 1018,7 - 60 0,0
21.11.2017 16:00:00 13,5 10,7 4 2 16 9 OZO 1019,0 - 60 0,0
21.11.2017 15:00:00 12,9 10,4 4 2 12 7 ZO 1019,2 - 58 0,0
21.11.2017 14:00:00 12,8 9,6 4 2 11 6 O 1019,7 - 48 0,0
21.11.2017 13:00:00 10,6 8,0 7 4 15 8 ONO 1020,3 10 60 0,0
21.11.2017 12:00:00 8,6 7,4 10 5 16 8 ONO 1021,1 - 58 0,0
21.11.2017 11:00:00 7,2 6,5 7 4 15 8 O 1021,4 - 4 0,0
21.11.2017 10:00:00 5,7 5,0 9 5 18 10 O 1021,3 6 8 0,0
21.11.2017 09:00:00 5,5 4,8 11 6 18 10 OZO 1021,1 - 0 0,0
21.11.2017 08:00:00 5,6 4,9 6 4 16 9 O 1020,9 - 0 0,0
21.11.2017 07:00:00 4,6 3,7 11 6 20 11 OZO 1020,4 12 0 0,0
21.11.2017 06:00:00 5,3 4,4 10 5 16 8 OZO 1020,4 - 0 0,0
21.11.2017 05:00:00 5,6 4,4 8 5 14 8 ZZO 1020,6 - 0 0,0
21.11.2017 04:00:00 5,1 3,6 9 5 16 9 ZZO 1020,8 12 0 0,0
21.11.2017 03:00:00 5,7 4,3 9 5 16 9 OZO 1021,0 - 0 0,0
21.11.2017 02:00:00 5,7 3,7 7 4 15 8 ZO 1021,3 - 0 0,0
21.11.2017 01:00:00 7,5 5,8 10 5 23 12 ZO 1021,7 12 0 0,0
21.11.2017 00:00:00 7,8 5,8 12 6 27 14 ZO 1021,8 - 0 0,0
20.11.2017 23:00:00 7,8 5,8 12 7 24 13 ZO 1022,1 - 0 0,0
20.11.2017 22:00:00 8,3 6,1 14 8 25 14 OZO 1022,3 12 0 0,0
20.11.2017 21:00:00 8,9 6,7 15 8 25 13 O 1022,4 - 0 0,0
20.11.2017 20:00:00 9,4 7,0 15 8 24 13 O 1022,6 - 0 0,0
20.11.2017 19:00:00 10,0 7,2 11 6 21 12 O 1022,5 12 0 0,0
20.11.2017 18:00:00 10,7 7,6 11 6 21 12 O 1022,3 - 11 0,0
20.11.2017 17:00:00 11,4 7,9 12 7 24 13 O 1022,5 - 34 0,0
20.11.2017 16:00:00 11,8 7,9 10 5 21 11 O 1022,7 12 60 0,0
20.11.2017 15:00:00 10,9 7,8 10 5 28 15 O 1023,2 - 60 0,0
20.11.2017 14:00:00 10,7 7,8 16 8 31 17 OZO 1024,0 - 36 0,0
20.11.2017 13:00:00 9,9 7,5 17 9 32 17 O 1024,8 12 4 0,0
20.11.2017 12:00:00 9,2 7,6 18 10 30 16 O 1025,7 - 0 0,0
20.11.2017 11:00:00 8,8 7,6 9 5 26 14 O 1025,7 - 6 0,0
20.11.2017 10:00:00 8,3 7,4 6 3 38 20 ZO 1025,6 8 29 0,0
20.11.2017 09:00:00 6,9 6,3 20 11 38 20 OZO 1025,6 - 0 0,0
20.11.2017 08:00:00 5,7 5,0 16 8 34 18 O 1025,8 0,2 0 0,2
20.11.2017 07:00:00 5,7 4,7 16 9 31 17 OZO 1025,6 8 0 0,0
20.11.2017 06:00:00 6,3 4,8 16 8 26 14 ZO 1025,3 - 0 0,0
20.11.2017 05:00:00 5,9 5,2 11 6 19 10 OZO 1025,5 - 0 0,0
20.11.2017 04:00:00 4,1 2,8 6 3 13 7 ZO 1025,6 15 0 0,0
20.11.2017 03:00:00 4,9 3,6 9 5 14 7 OZO 1025,8 - 0 0,0
20.11.2017 02:00:00 5,3 4,1 10 5 15 8 ZO 1026,1 - 0 0,0
20.11.2017 01:00:00 4,7 3,2 5 3 14 7 O 1026,7 15 0 0,0
20.11.2017 00:00:00 5,0 3,0 6 4 13 7 OZO 1026,9 - 0 0,0
19.11.2017 23:00:00 6,2 4,5 8 4 14 8 ONO 1027,1 - 0 0,0
19.11.2017 22:00:00 6,5 5,1 8 4 14 7 ONO 1027,1 15 0 0,0
19.11.2017 21:00:00 6,3 4,1 6 3 14 7 ONO 1026,7 - 0 0,0
19.11.2017 20:00:00 6,9 4,6 7 4 13 7 O 1026,6 - 0 0,0
19.11.2017 19:00:00 7,9 5,9 10 6 16 8 ONO 1026,2 15 0 0,0
19.11.2017 18:00:00 8,0 4,4 9 5 12 6 NO 1026,0 - 20 0,0
19.11.2017 17:00:00 10,6 5,1 5 3 10 5 NNO 1025,9 - 60 0,0
19.11.2017 16:00:00 11,9 4,6 6 4 14 8 NNO 1025,8 15 60 0,0
19.11.2017 15:00:00 11,4 4,8 8 4 16 8 NO 1025,9 - 60 0,0
19.11.2017 14:00:00 11,0 5,1 9 5 18 10 ONO 1026,2 - 60 0,0
19.11.2017 13:00:00 10,5 4,2 10 5 17 9 NNO 1027,0 15 60 0,0
19.11.2017 12:00:00 9,3 4,9 6 4 13 7 NO 1027,3 - 60 0,0
19.11.2017 11:00:00 8,7 4,5 7 4 16 9 ONO 1027,3 - 60 0,0
19.11.2017 10:00:00 6,5 4,3 10 6 16 9 NO 1026,9 15 60 0,0
19.11.2017 09:00:00 3,5 2,3 8 4 13 7 NO 1026,5 - 37 0,0
19.11.2017 08:00:00 3,4 1,4 5 3 15 8 ONO 1026,1 - 0 0,0
19.11.2017 07:00:00 5,1 3,6 12 6 16 9 ONO 1025,7 15 0 0,0
19.11.2017 06:00:00 5,0 3,7 9 5 16 9 ONO 1025,5 - 0 0,0
19.11.2017 05:00:00 5,3 4,3 10 5 17 9 ONO 1025,5 - 0 0,0
19.11.2017 04:00:00 4,8 3,5 8 4 18 10 NO 1025,6 15 0 0,0
19.11.2017 03:00:00 3,8 2,9 13 7 16 9 NO 1025,7 - 0 0,0
19.11.2017 02:00:00 2,8 1,2 8 5 11 6 NNO 1025,6 - 0 0,0

tt = temperatuur
td = dauwpunt
ff = windsnelheid
fx = windstoten
dd = windrichting
ppp = luchtdruk
vv = zicht
sd = Zonneschijnduur
rr = neerslag

Weerstations in de omgeving